| time (UTC) | temp F | wind direction | speed knots | gust knots | rain 1hr in | rain 24hr in | rain mn in | humidity % | barometer mb |
| 20260510104603 | 51 | 0 | 0.0 | 0.0 | 0.00 | 0.43 | 0.00 | 94 | 1011.5 |
| 20260510103059 | 50 | 0 | 0.0 | 0.0 | 0.00 | 0.43 | 0.00 | 94 | 1011.5 |
| 20260510101553 | 50 | 0 | 0.0 | 0.0 | 0.00 | 0.43 | 0.00 | 94 | 1011.5 |
| 20260510100055 | 50 | 0 | 0.0 | 0.0 | 0.00 | 0.43 | 0.00 | 94 | 1011.5 |
| 20260510094605 | 50 | 0 | 0.0 | 0.0 | 0.00 | 0.45 | 0.00 | 94 | 1011.3 |
| 20260510093111 | 50 | 0 | 0.0 | 0.0 | 0.00 | 0.45 | 0.00 | 94 | 1011.2 |
| 20260510091550 | 50 | 0 | 0.0 | 0.0 | 0.00 | 0.45 | 0.00 | 94 | 1011.0 |
| 20260510090051 | 50 | 0 | 0.0 | 0.0 | 0.00 | 0.45 | 0.00 | 94 | 1010.8 |
| 20260510084554 | 50 | 0 | 0.0 | 0.0 | 0.00 | 0.46 | 0.00 | 94 | 1010.9 |
| 20260510083055 | 50 | 0 | 0.0 | 0.0 | 0.00 | 0.46 | 0.00 | 93 | 1010.7 |
| 20260510081554 | 50 | 0 | 0.0 | 0.0 | 0.00 | 0.46 | 0.00 | 93 | 1011.0 |
| 20260510080051 | 51 | 0 | 0.0 | 0.0 | 0.00 | 0.46 | 0.00 | 93 | 1010.9 |
| 20260510074552 | 51 | 0 | 0.0 | 0.0 | 0.00 | 0.50 | 0.00 | 93 | 1011.2 |
| 20260510073055 | 52 | 0 | 0.0 | 0.0 | 0.00 | 0.50 | 0.00 | 94 | 1011.2 |
| 20260510071556 | 52 | 0 | 0.0 | 0.0 | 0.00 | 0.50 | 0.00 | 94 | 1011.7 |
| 20260510070056 | 52 | 0 | 0.0 | 0.0 | 0.00 | 0.50 | 0.00 | 94 | 1011.6 |
| 20260510064551 | 52 | 0 | 0.0 | 1.7 | 0.00 | 0.50 | 0.00 | 94 | 1011.7 |
| 20260510063051 | 52 | 323 | 0.0 | 0.0 | 0.00 | 0.50 | 0.00 | 94 | 1011.6 |
| 20260510061553 | 52 | 0 | 0.0 | 0.0 | 0.00 | 0.50 | 0.00 | 94 | 1011.0 |
| 20260510060055 | 51 | 0 | 0.0 | 1.7 | 0.00 | 0.50 | 0.00 | 94 | 1011.0 |
| 20260510054552 | 51 | 0 | 0.0 | 0.0 | 0.00 | 0.50 | 0.00 | 94 | 1011.0 |
| 20260510053102 | 51 | 0 | 0.0 | 0.0 | 0.00 | 0.50 | 0.00 | 94 | 1011.0 |
| 20260510051558 | 51 | 0 | 0.0 | 0.0 | 0.00 | 0.50 | 0.00 | 94 | 1011.2 |
| 20260510050056 | 50 | 0 | 0.0 | 0.0 | 0.00 | 0.50 | 0.00 | 94 | 1011.0 |
| 20260510044554 | 50 | 0 | 0.0 | 0.0 | 0.00 | 0.50 | 0.00 | 94 | 1010.7 |
| 20260510043102 | 50 | 0 | 0.0 | 0.0 | 0.00 | 0.50 | 0.00 | 94 | 1010.8 |
| 20260510041550 | 50 | 0 | 0.0 | 0.0 | 0.00 | 0.50 | 0.00 | 93 | 1010.9 |
| 20260510040056 | 50 | 0 | 0.0 | 0.0 | 0.00 | 0.50 | 0.00 | 93 | 1010.8 |
| 20260510034555 | 50 | 0 | 0.0 | 0.0 | 0.00 | 0.50 | 0.50 | 92 | 1010.6 |
| 20260510033112 | 51 | 0 | 0.0 | 0.0 | 0.00 | 0.50 | 0.50 | 92 | 1010.7 |
| 20260510031557 | 51 | 0 | 0.0 | 0.0 | 0.00 | 0.50 | 0.50 | 93 | 1010.7 |
| 20260510030053 | 51 | 0 | 0.0 | 0.0 | 0.00 | 0.50 | 0.50 | 93 | 1010.7 |
| 20260510024552 | 51 | 0 | 0.0 | 0.0 | 0.00 | 0.50 | 0.50 | 93 | 1010.8 |
| 20260510023053 | 51 | 0 | 0.0 | 0.0 | 0.00 | 0.50 | 0.50 | 92 | 1010.6 |
| 20260510021553 | 52 | 0 | 0.0 | 0.0 | 0.00 | 0.50 | 0.50 | 92 | 1010.7 |
| 20260510020054 | 52 | 0 | 0.0 | 0.0 | 0.00 | 0.50 | 0.50 | 92 | 1010.2 |
| 20260510014553 | 53 | 0 | 0.0 | 0.0 | 0.00 | 0.50 | 0.50 | 92 | 1010.6 |
| 20260510013056 | 53 | 0 | 0.0 | 0.0 | 0.00 | 0.50 | 0.50 | 93 | 1010.6 |
| 20260510011558 | 53 | 0 | 0.0 | 0.0 | 0.00 | 0.50 | 0.50 | 92 | 1010.4 |
| 20260510010055 | 53 | 0 | 0.0 | 0.0 | 0.00 | 0.50 | 0.50 | 92 | 1010.1 |
| 20260510004600 | 53 | 0 | 0.0 | 0.0 | 0.00 | 0.50 | 0.50 | 92 | 1010.0 |
| 20260510003056 | 54 | 0 | 0.0 | 0.0 | 0.00 | 0.50 | 0.50 | 92 | 1010.0 |
| 20260510001551 | 54 | 0 | 0.0 | 1.7 | 0.00 | 0.50 | 0.50 | 92 | 1009.7 |
| 20260510000058 | 54 | 0 | 0.0 | 1.7 | 0.00 | 0.50 | 0.50 | 92 | 1009.5 |
| 20260509234548 | 54 | 0 | 0.0 | 1.7 | 0.00 | 0.50 | 0.50 | 92 | 1009.3 |
| 20260509233056 | 55 | 0 | 0.0 | 2.6 | 0.00 | 0.50 | 0.50 | 92 | 1009.2 |
| 20260509231553 | 55 | 0 | 0.0 | 0.0 | 0.00 | 0.50 | 0.50 | 92 | 1009.3 |
| 20260509230055 | 55 | 0 | 0.0 | 1.7 | 0.00 | 0.50 | 0.50 | 92 | 1009.4 |
| 20260509224554 | 56 | 0 | 0.0 | 1.7 | 0.00 | 0.50 | 0.50 | 92 | 1009.5 |
| 20260509223051 | 56 | 0 | 0.0 | 0.0 | 0.00 | 0.50 | 0.50 | 93 | 1009.3 |
| 20260509221550 | 56 | 0 | 0.0 | 1.7 | 0.00 | 0.50 | 0.50 | 93 | 1009.2 |
| 20260509220053 | 55 | 0 | 0.0 | 0.0 | 0.00 | 0.50 | 0.50 | 92 | 1009.3 |
| 20260509214610 | 56 | 0 | 0.0 | 1.7 | 0.01 | 0.50 | 0.50 | 92 | 1009.5 |
| 20260509213049 | 56 | 0 | 0.0 | 2.6 | 0.02 | 0.50 | 0.50 | 92 | 1009.5 |
| 20260509211555 | 56 | 173 | 0.0 | 3.5 | 0.04 | 0.50 | 0.50 | 93 | 1009.5 |
| 20260509210058 | 55 | 0 | 0.0 | 1.7 | 0.07 | 0.50 | 0.50 | 93 | 1009.6 |
| 20260509204554 | 55 | 0 | 0.0 | 3.5 | 0.08 | 0.49 | 0.49 | 93 | 1009.7 |
| 20260509203101 | 55 | 0 | 0.0 | 1.7 | 0.09 | 0.48 | 0.48 | 92 | 1010.0 |
| 20260509201556 | 55 | 0 | 0.0 | 3.5 | 0.09 | 0.45 | 0.45 | 92 | 1010.3 |
| 20260509200049 | 55 | 302 | 0.0 | 2.6 | 0.08 | 0.43 | 0.43 | 92 | 1010.4 |
| 20260509194552 | 55 | 143 | 0.0 | 1.7 | 0.10 | 0.41 | 0.41 | 92 | 1010.5 |
| 20260509193057 | 55 | 0 | 0.0 | 1.7 | 0.11 | 0.39 | 0.39 | 92 | 1010.7 |
| 20260509191600 | 55 | 121 | 0.0 | 1.7 | 0.09 | 0.36 | 0.36 | 93 | 1010.9 |
| 20260509190056 | 54 | 0 | 0.0 | 0.9 | 0.09 | 0.35 | 0.35 | 92 | 1011.2 |
| 20260509184558 | 54 | 269 | 0.0 | 1.7 | 0.08 | 0.31 | 0.31 | 92 | 1011.6 |
| 20260509183058 | 54 | 0 | 0.0 | 1.7 | 0.07 | 0.28 | 0.28 | 92 | 1011.5 |
| 20260509181557 | 54 | 0 | 0.0 | 1.7 | 0.07 | 0.27 | 0.27 | 92 | 1011.3 |
| 20260509180054 | 54 | 302 | 0.0 | 2.6 | 0.07 | 0.26 | 0.26 | 91 | 1011.2 |
| 20260509174619 | 53 | 334 | 0.0 | 2.6 | 0.05 | 0.23 | 0.23 | 91 | 1011.2 |
| 20260509173054 | 54 | 11 | 0.0 | 1.7 | 0.04 | 0.21 | 0.21 | 91 | 1011.1 |
| 20260509171552 | 53 | 0 | 0.0 | 0.0 | 0.05 | 0.20 | 0.20 | 91 | 1010.8 |
| 20260509170052 | 53 | 0 | 0.0 | 0.0 | 0.05 | 0.19 | 0.19 | 91 | 1011.1 |
| 20260509164553 | 53 | 0 | 0.0 | 0.9 | 0.05 | 0.18 | 0.18 | 91 | 1011.3 |
| 20260509163057 | 52 | 9 | 0.0 | 2.6 | 0.06 | 0.17 | 0.17 | 91 | 1011.6 |
| 20260509161551 | 52 | 0 | 0.0 | 1.7 | 0.04 | 0.15 | 0.15 | 91 | 1011.9 |
| 20260509160055 | 51 | 0 | 0.0 | 0.0 | 0.04 | 0.14 | 0.14 | 91 | 1012.1 |
| 20260509154555 | 51 | 0 | 0.0 | 0.0 | 0.03 | 0.13 | 0.13 | 90 | 1012.4 |
| 20260509153115 | 51 | 0 | 0.0 | 1.7 | 0.01 | 0.11 | 0.11 | 90 | 1012.3 |
| 20260509151556 | 51 | 14 | 0.0 | 1.7 | 0.01 | 0.11 | 0.11 | 90 | 1012.2 |
| 20260509150058 | 51 | 9 | 0.9 | 2.6 | 0.00 | 0.10 | 0.10 | 90 | 1012.2 |
| 20260509144559 | 50 | 0 | 0.0 | 1.7 | 0.01 | 0.10 | 0.10 | 90 | 1012.3 |
| 20260509143055 | 50 | 0 | 0.0 | 1.7 | 0.01 | 0.10 | 0.10 | 91 | 1012.4 |
| 20260509141551 | 49 | 0 | 0.0 | 0.9 | 0.01 | 0.10 | 0.10 | 91 | 1012.5 |
| 20260509140051 | 48 | 0 | 0.0 | 1.7 | 0.01 | 0.10 | 0.10 | 91 | 1012.5 |
| 20260509134552 | 48 | 0 | 0.0 | 1.7 | 0.00 | 0.09 | 0.09 | 91 | 1012.8 |
| 20260509133054 | 47 | 0 | 0.0 | 0.0 | 0.00 | 0.09 | 0.09 | 91 | 1012.7 |
| 20260509131552 | 47 | 0 | 0.0 | 1.7 | 0.01 | 0.09 | 0.09 | 92 | 1012.9 |
| 20260509130105 | 46 | 0 | 0.0 | 1.7 | 0.01 | 0.09 | 0.09 | 91 | 1012.5 |
| 20260509124557 | 46 | 0 | 0.0 | 2.6 | 0.01 | 0.09 | 0.09 | 92 | 1012.4 |
| 20260509123057 | 46 | 148 | 0.0 | 1.7 | 0.00 | 0.08 | 0.08 | 92 | 1012.5 |
| 20260509121614 | 46 | 0 | 0.0 | 0.0 | 0.01 | 0.08 | 0.08 | 91 | 1012.9 |
| 20260509120051 | 46 | 149 | 0.0 | 0.9 | 0.01 | 0.08 | 0.08 | 92 | 1013.0 |
| 20260509114600 | 45 | 0 | 0.0 | 0.0 | 0.01 | 0.08 | 0.08 | 92 | 1013.0 |
| 20260509113101 | 45 | 0 | 0.0 | 0.0 | 0.01 | 0.08 | 0.08 | 92 | 1013.1 |
| 20260509111553 | 45 | 0 | 0.0 | 0.0 | 0.00 | 0.07 | 0.07 | 91 | 1013.2 |
| 20260509110056 | 45 | 0 | 0.0 | 0.0 | 0.00 | 0.07 | 0.07 | 91 | 1013.0 |